User: anonymous   Login
Location: Mount Kobau Star Party
(49.1167°N, 119.7333°W)
Time: 08:12:06
(UTC-08:00)
Language:

TSX-5 - Orbit

View from above orbital plane
View from above orbital plane
View from above satellite
View from above satellite

Ground track
Ground track

The orbit data is extracted from the following two-line orbital elements,

1 26374U 00030A   15027.38155865  .00004702  00000-0  41771-3 0  5173
2 26374 068.9347 353.6710 0682566 181.0283 307.1540 13.97022053733894
Epoch (UTC): 27 January 2015 09:09:26
Eccentricity: 0.0682566
inclination: 68.9347°
perigee height: 407 km
apogee height: 1401 km
right ascension of ascending node: 353.6710°
argument of perigee: 181.0283°
revolutions per day: 13.97022053
mean anomaly at epoch: 307.1540°
orbit number at epoch: 73389

The dashed part of the orbit path shows where the satellite is in the earth's shadow,  

DLR